カタログに戻る

COSMOS 839 DEB

運用中UNKNOWN
NORAD 10440·DEBRIS·🇷🇺 Russia

打ち上げ Jul 8, 1976 から Plesetsk Cosmodrome

Loading…

次のパス (今後24時間)

TLE

最新Source: Space-Track

元期: Sep 13, 2026, 02:05 UTC

1 10440U 76067R   26256.08682259  .00000378  00000-0  13352-2 0  9990
2 10440  65.6505 136.5244 0710547  45.3475  96.2344 12.40600175268993

AllMySatでCOSMOS 839 DEBをリアルタイム追跡

Download on the App Store